Overview Statistics Trail Chart Weather Telemetry Raw packets
 

This is the latest recevied weather packets stored in our database for station/object VK4CWL-13. If no packets are shown the sender has not sent any weather packets the latest 10 day(s).

<< 2 3 4 5 6 7 8 >>
Time Temp. Humidity Pressure Rain* Wind** Luminosity Snow
1788649931 22.22° C 55% 1020.3 hPa 0 mm - - -
1788649629 21.67° C 56% 1020.3 hPa 0 mm - - -
1788649327 21.11° C 57% 1020.4 hPa 0 mm - - -
1788649025 21.11° C 57% 1020.3 hPa 0 mm - - -
1788648723 21.11° C 58% 1020.4 hPa 0 mm - - -
1788648420 20.56° C 59% 1020.5 hPa 0 mm - - -
1788648118 20.56° C 59% 1020.5 hPa 0 mm - - -
1788647817 20.56° C 60% 1020.7 hPa 0 mm - - -
1788647513 20° C 61% 1020.8 hPa 0 mm - - -
1788647211 20° C 62% 1020.7 hPa 0 mm - - -
1788646908 19.44° C 64% 1020.6 hPa 0 mm - - -
1788646608 18.89° C 65% 1020.7 hPa 0 mm - - -
1788646307 18.33° C 66% 1020.7 hPa 0 mm - - -
1788646002 17.78° C 67% 1020.6 hPa 0 mm - - -
1788645704 17.78° C 69% 1020.7 hPa 0 mm - - -
1788645397 17.22° C 70% 1020.7 hPa 0 mm - - -
1788645095 16.67° C 71% 1020.5 hPa 0 mm - - -
1788644794 16.11° C 72% 1020.4 hPa 0 mm - - -
1788644490 15.56° C 73% 1020.3 hPa 0 mm - - -
1788644188 15.56° C 74% 1020.3 hPa 0 mm - - -
1788643886 15° C 74% 1020.3 hPa 0 mm - - -
1788643586 14.44° C 73% 1020.3 hPa 0 mm - - -
1788643281 14.44° C 75% 1020.4 hPa 0 mm - - -
1788642980 13.89° C 75% 1020.2 hPa 0 mm - - -
1788642677 13.89° C 72% 1020.1 hPa 0 mm - - -

* Rain since midnight (hover to see other rain measurements)
** Current wind speed in m/s (hover to see current wind gust speed)